changsha , China , ASIA

  • Thursday
    July 27

    Sunny  Sunny

    104 °F  86 °F

    Southeast  Southeast

        

  • Friday
    July 28

    Sunny  Sunny

    102 °F  86 °F

    East  North

        

  • Saturday
    July 29

    Thundershower  Cloudy

    99 °F  86 °F

    North  North

        

  • Sunday
    July 30

    Thundershower  Cloudy

    99 °F  84 °F

    Northwest  Northwest

        

  • Monday
    July 31

    Thundershower  Cloudy

    97 °F  86 °F

    Northwest  Northwest

        

  • Tuesday
    August 1

    Shower  Shower

    97 °F  86 °F

    Northwest  Northwest

        

  • Wednesday
    August 2

    Shower  Cloudy

    97 °F  86 °F

    Northwest  Northwest

        

Date   Weather Temperature Humidity Total_rain Visibility Wind
11:00 Sunny 100°F 65.2% 0mm 999.9km Southeast  1.5m/s
14:00 Sunny 104°F 56.7% 0mm 999.9km Southeast  0.3m/s
17:00 Sunny 101°F 61.7% 0mm 999.9km Southeast  2.7m/s
20:00 Sunny 95°F 71.6% 0mm 999.9km Southeast  2.3m/s
23:00 Sunny 91°F 78.3% 0mm 999.9km Southeast  1.7m/s
02:00 Sunny 88°F 82.9% 0mm 999.9km Southeast  1.1m/s
05:00 Sunny 86°F 85.7% 0mm 999.9km Southeast  1.4m/s
08:00 Sunny 91°F 76% 0mm 999.9km Southeast  1.0m/s
11:00 Sunny 99°F 57.9% 0mm 999.9km Southeast  0.9m/s
14:00 Sunny 100°F 65.4% 0mm 999.9km Southeast  0.8m/s
17:00 Sunny 102°F 63.4% 0mm 999.9km Southeast  1.6m/s
20:00 Sunny 96°F 74.1% 0mm 999.9km Southeast  1.1m/s
23:00 Sunny 91°F 82% 0mm 999.9km Southeast  1.0m/s
02:00 Sunny 87°F 86.8% 0mm 999.9km Southeast  0.3m/s
05:00 Sunny 86°F 87.9% 0mm 999.9km Northeast  0.3m/s
08:00 Sunny 92°F 78.8% 0mm 999.9km Northeast  0.3m/s
11:00 Thundershower 95°F 63.4% 3.6mm 999.9km Northeast  1.0m/s
14:00 Thundershower 97°F 70.8% 2.3mm 999.9km Northeast  0.9m/s
17:00 Cloudy 98°F 69.2% 0mm 999.9km Northwest  1.1m/s
20:00 Thundershower 92°F 81.1% 1.2mm 999.9km Northeast  1.2m/s
23:00 Cloudy 90°F 85.5% 0mm 999.9km Northeast  0.9m/s
02:00 Cloudy 88°F 87.8% 0mm 999.9km Northwest  1.1m/s
05:00 Cloudy 86°F 90% 0mm 999.9km Northwest  1.3m/s
08:00 Cloudy 90°F 84.7% 0mm 999.9km Northwest  1.0m/s
11:00 Thundershower 91°F 66.6% 2.8mm 999.9km Northwest  0.9m/s
14:00 Thundershower 95°F 73.8% 1.4mm 999.9km Northwest  0.7m/s
17:00 Thundershower 98°F 70.6% 1mm 999.9km Northeast  0.8m/s
20:00 Thundershower 94°F 75.9% 0.1mm 999.9km Southeast  0.5m/s
23:00 Cloudy 90°F 83% 0mm 999.9km Southwest  0.8m/s
02:00 Cloudy 87°F 86.1% 0mm 999.9km Southwest  0.9m/s
05:00 Cloudy 85°F 88.5% 0mm 999.9km Southwest  0.7m/s
08:00 Cloudy 90°F 81.4% 0mm 999.9km Southwest  0.2m/s
11:00 Thundershower 92°F 66.9% 4.1mm 999.9km Southwest  0.6m/s
14:00 Thundershower 94°F 70% 2.7mm 999.9km Southwest  0.1m/s
17:00 Thundershower 96°F 73.1% 0.1mm 999.9km Southeast  0.5m/s
20:00 Cloudy 92°F 74.8% 0mm 999.9km Southeast  1.1m/s
23:00 Cloudy 91°F 76.3% 0mm 999.9km Northwest  2.6m/s
02:00 Cloudy 86°F 88.5% 0mm 999.9km Southeast  0.5m/s
05:00 Cloudy 88°F 81% 0mm 999.9km Northwest  2.0m/s
08:00 Cloudy 90°F 71.6% 0mm 999.9km Southeast  0.3m/s
11:00 Sunny 96°F 59.1% 0mm 999.9km Northwest  3.5m/s
14:00 Shower 92°F 67.4% 4.5mm 999.9km Southwest  0.8m/s
17:00 Cloudy 92°F 65% 0mm 999.9km Northwest  3.7m/s
20:00 Shower 92°F 72.8% 0.7mm 999.9km Southeast  0.9m/s
23:00 Shower 90°F 77.7% 2.3mm 999.9km Northwest  1.8m/s
02:00 Shower 86°F 92.8% 2.3mm 999.9km Southeast  0.6m/s
05:00 Shower 88°F 81.8% 2.3mm 999.9km Northwest  1.2m/s
08:00 Shower 89°F 72.8% 2.3mm 999.9km Southwest  0.3m/s
11:00 Cloudy 96°F 66.7% 0mm 999.9km Northwest  2.3m/s
14:00 Shower 92°F 70.7% 5.2mm 999.9km Northeast  0.8m/s
17:00 Cloudy 91°F 68.4% 0mm 999.9km Northwest  1.9m/s
20:00 Cloudy 91°F 75% 0mm 999.9km Southwest  0.6m/s
23:00 Cloudy 90°F 80% 0mm 999.9km Northeast  1.4m/s
02:00 Cloudy 88°F 81.6% 0mm 999.9km Southeast  1.1m/s
05:00 Cloudy 86°F 84.8% 0mm 999.9km Southeast  0.6m/s